Wetbulb
74.89 76.36 77.43 77.50 77.17 76.92 76.67 76.47 76.74 76.67 76.49 76.54 76.62 76.62 76.49 76.38 76.74 76.84 76.97 76.95 76.72 76.12 75.30 74.38 73.10 73.38 73.47 74.12 74.16 74.46 75.07 74.76 74.59 74.13 73.72 73.30 73.91 74.65 74.65 73.54 72.88 71.66 72.62
75.62 76.48 77.29 77.35 77.10 77.00 76.87 76.67 76.66 76.26 76.16 76.34 76.44 76.69 76.53 76.51 76.64 76.59 76.67 76.72 76.27 75.55 74.70 73.50 73.08 73.58 73.75 74.01 73.98 73.92 73.72 73.73 74.38 74.58 74.02 73.29 73.58 73.42 73.42 73.14 73.06 71.83 72.52
75.46 76.24 76.62 77.14 77.15 77.07 76.77 76.69 76.55 76.28 76.13 76.16 76.38 76.68 76.82 76.73 76.71 76.44 76.24 76.02 75.44 74.37 73.51 73.16 73.10 73.45 73.68 73.86 73.75 73.47 73.10 73.31 73.60 73.58 73.79 71.44 70.23 73.12 73.07 72.84 72.85 72.37 72.28
75.75 75.82 75.60 76.87 76.97 77.00 76.67 76.46 76.33 76.20 76.10 76.18 76.28 76.47 76.70 76.65 76.58 76.09 75.89 75.34 74.01 73.25 72.95 72.81 72.91 72.99 73.30 73.50 73.08 72.69 72.64 72.84 72.81 72.64 71.22 71.95 69.98 72.93 73.06 72.81 72.97 72.72 72.35
75.28 75.63 75.70 76.94 76.87 77.10 76.74 76.26 76.35 76.33 76.08 76.10 76.26 76.28 76.50 76.42 76.19 75.85 75.41 74.87 73.67 72.44 72.26 72.28 72.50 72.84 73.00 73.06 72.71 72.39 71.67 71.07 70.70 69.04 65.30 67.61 67.80 72.73 73.06 73.12 73.11 73.37 72.12
74.64 75.70 76.93 76.79 76.74 76.84 76.94 76.36 76.23 76.37 76.18 76.16 76.23 76.30 76.32 76.07 75.99 75.49 75.11 74.44 74.02 72.74 71.62 71.29 71.70 71.94 71.98 71.77 71.63 70.69 70.05 70.15 70.20 62.67 62.42 66.94 67.80 73.64 73.78 73.04 72.55 72.89 72.53
74.33 75.86 76.38 77.03 76.91 77.00 77.00 76.44 76.28 76.28 76.00 75.90 76.03 76.23 76.17 75.86 75.69 75.37 74.74 74.42 73.96 73.21 72.28 71.50 71.93 71.57 71.12 70.57 70.06 69.43 69.07 69.04 64.31 62.50 62.97 64.81 68.36 73.72 74.63 74.61 73.61 72.54 72.00
73.74 75.33 76.01 77.05 76.93 76.58 76.72 76.41 76.18 76.02 75.86 75.85 75.75 75.85 75.94 75.61 75.52 75.22 74.51 74.22 74.07 73.51 72.96 72.37 72.14 71.47 70.38 69.82 69.43 69.04 69.05 69.25 65.75 62.43 62.75 62.76 70.48 74.04 74.76 74.19 73.87 73.50 72.25
73.89 74.16 75.14 76.00 76.72 77.11 76.70 76.21 76.04 75.87 75.73 75.53 75.48 75.58 75.51 75.34 75.24 74.87 74.29 74.17 73.85 73.37 73.00 72.65 72.20 71.64 70.72 70.02 69.76 69.51 69.73 69.51 63.96 62.88 63.47 63.65 72.78 74.32 74.96 74.67 74.39 74.09 73.94
72.98 73.05 74.20 75.01 75.84 75.57 75.78 76.48 76.26 75.85 75.78 75.55 75.43 75.38 75.21 75.24 74.99 74.85 73.57 73.89 73.87 73.40 73.08 72.70 72.26 71.74 70.90 70.31 70.08 70.25 70.71 69.74 65.01 63.95 63.32 62.78 73.05 74.11 75.39 74.62 74.59 74.41 74.51
72.01 71.92 73.22 74.19 74.73 75.08 74.98 75.94 76.31 76.47 76.04 75.58 75.44 75.33 74.19 73.13 72.95 72.93 72.94 73.21 73.82 73.55 73.20 72.90 72.28 71.62 71.25 70.90 70.93 70.97 71.12 65.97 64.58 63.74 62.96 66.92 70.94 73.68 74.85 74.74 74.69 74.41 74.26
70.39 70.41 71.94 72.89 73.37 73.83 75.32 74.85 75.13 75.23 75.17 74.67 74.18 74.00 72.79 71.62 71.73 72.10 72.54 73.56 73.99 73.74 73.24 73.14 72.60 72.08 71.47 66.74 65.83 69.65 67.44 66.20 65.15 64.51 63.95 69.64 72.92 74.03 74.08 73.27 73.69 73.99 74.51
71.27 70.82 71.00 71.62 72.29 72.47 73.07 73.51 74.20 74.30 74.33 73.97 73.74 73.42 71.75 71.27 70.96 71.35 69.93 70.64 70.44 72.73 69.97 70.90 70.01 69.52 67.71 66.89 66.26 65.04 66.18 66.48 65.44 65.75 67.56 70.92 72.79 73.78 74.52 72.96 72.68 72.84 73.15
70.54 70.35 70.81 70.92 70.85 71.07 72.48 73.05 73.22 73.63 73.43 73.30 73.19 73.01 71.68 70.27 69.41 69.78 68.95 67.61 68.69 68.51 68.17 67.40 67.29 67.23 67.09 66.82 65.73 65.01 66.27 66.95 66.37 66.57 67.73 71.67 72.53 73.56 75.01 74.07 73.27 72.94 72.63
69.31 69.42 69.42 70.01 69.86 69.96 70.11 71.82 71.87 72.35 72.93 72.88 72.80 72.87 72.35 70.55 68.63 68.90 68.03 67.63 68.10 67.55 67.78 65.88 65.08 65.04 65.32 65.34 65.92 66.53 67.63 68.01 67.51 68.75 67.87 73.87 72.48 73.15 74.78 75.10 74.45 74.46 74.12
69.37 68.97 70.33 69.72 69.60 69.25 69.06 70.66 70.09 70.68 71.70 72.02 72.31 72.54 72.55 71.37 69.87 67.92 67.77 67.79 67.18 67.50 67.54 66.35 64.69 64.09 64.33 65.66 66.54 68.07 70.08 70.19 69.86 69.56 67.64 70.36 72.81 72.84 73.82 74.93 75.10 74.98 74.91
69.14 70.35 70.51 69.97 70.66 69.99 69.38 69.87 70.07 69.12 69.48 69.53 70.21 71.24 72.22 71.59 69.67 68.94 67.62 67.54 67.00 67.14 66.62 66.00 63.83 63.98 64.62 66.99 67.43 68.64 69.98 70.61 70.61 70.62 70.37 69.65 70.31 72.56 72.92 73.77 74.54 74.81 75.02
66.84 69.55 69.99 70.80 67.12 64.24 70.51 71.31 71.59 69.99 68.67 68.75 68.50 68.77 69.90 71.40 70.95 68.00 67.95 67.84 67.87 67.07 66.54 65.59 64.99 64.75 64.93 65.20 67.51 68.29 68.20 69.19 69.75 70.11 69.70 69.23 70.24 70.20 71.59 73.27 73.77 74.37 74.77
65.96 67.48 66.64 65.41 65.37 64.71 64.50 70.06 71.33 72.28 69.50 68.70 66.86 67.70 68.31 69.65 70.80 69.72 67.99 68.48 67.02 67.55 66.87 66.36 65.64 64.76 64.00 65.08 65.14 64.77 65.08 66.14 67.83 70.07 69.53 69.11 69.32 69.68 69.69 71.10 72.67 73.04 73.55
64.92 66.17 65.87 64.59 64.71 66.62 64.69 68.30 71.65 71.77 71.97 71.81 69.51 68.10 68.03 68.69 69.60 70.00 69.87 68.16 67.31 66.76 65.89 65.55 65.26 64.86 64.77 65.08 66.03 65.87 64.47 65.30 66.78 67.69 68.87 68.94 68.36 68.83 69.29 69.15 69.05 71.21 72.49
61.63 65.16 64.77 61.62 62.21 62.05 62.64 69.61 69.88 70.62 70.70 71.22 71.47 72.11 70.23 69.38 69.42 68.90 69.69 68.97 67.78 68.02 67.86 66.03 65.40 64.83 65.10 64.05 63.10 63.13 64.48 66.64 67.23 67.81 68.30 68.56 68.84 69.25 68.93 69.02 68.54 68.77 69.80
56.59 59.38 57.68 57.71 60.04 59.67 58.17 62.12 68.88 69.11 68.86 70.35 71.23 71.19 70.77 70.70 70.44 69.40 68.61 68.69 69.43 68.27 67.76 66.91 66.20 66.18 65.16 64.60 63.93 61.29 59.81 62.14 66.04 68.81 68.60 68.53 67.94 67.82 68.67 69.20 69.33 69.17 68.83
54.18 55.10 56.11 57.55 58.36 59.13 59.87 60.52 61.01 61.28 62.40 64.88 65.02 67.25 68.99 70.42 70.77 69.62 68.95 68.15 68.08 68.66 68.24 68.59 68.11 66.46 65.93 64.57 65.55 63.37 59.21 59.26 59.94 64.40 66.88 68.15 67.88 67.36 68.25 69.17 69.20 68.85 69.53
55.17 56.65 58.20 59.56 59.24 60.70 62.51 61.31 59.99 58.97 58.19 60.08 60.97 63.43 64.31 66.42 69.39 70.23 69.56 68.23 65.46 63.96 65.13 68.36 69.23 68.85 68.33 66.55 63.90 66.42 64.62 61.64 58.86 57.28 63.64 65.83 66.95 67.15 67.85 68.60 68.50 67.43 67.04
55.21 54.66 56.14 57.96 59.40 59.87 59.84 59.01 58.42 57.77 58.51 59.92 60.27 59.89 61.32 64.36 67.20 66.46 67.63 64.33 63.49 64.47 65.66 65.95 66.15 67.62 67.80 66.80 65.65 65.73 64.76 65.23 64.15 60.12 58.07 61.41 64.23 66.36 67.60 67.92 66.50 64.50 66.17
53.27 54.35 53.81 54.68 54.95 56.74 57.35 57.23 57.58 58.09 58.82 59.56 60.11 60.46 59.99 59.58 62.03 66.39 65.79 62.78 62.60 62.55 62.37 63.28 64.39 65.17 66.71 66.07 66.20 64.87 61.24 59.48 57.69 56.28 55.50 58.44 59.71 62.25 64.55 64.73 63.97 63.38 64.14
MSLP
1009.24 1009.54 1009.75 1009.44 1009.47 1009.76 1010.14 1010.46 1010.79 1011.07 1011.35 1011.73 1012.09 1012.34 1012.57 1012.82 1013.07 1013.25 1013.43 1013.61 1013.77 1013.90 1014.13 1014.33 1014.48 1014.59 1014.62 1014.61 1014.77 1014.82 1014.83 1014.94 1015.06 1015.08 1015.08 1015.06 1014.93 1014.73 1014.68 1014.82 1015.11 1015.15 1015.26
1008.08 1009.33 1009.77 1009.63 1009.65 1009.94 1010.31 1010.65 1011.02 1011.31 1011.56 1011.81 1012.08 1012.34 1012.71 1012.93 1013.11 1013.29 1013.51 1013.73 1013.82 1013.94 1014.06 1014.24 1014.36 1014.45 1014.56 1014.66 1014.76 1014.81 1014.84 1014.87 1014.92 1015.01 1014.98 1014.97 1014.96 1014.93 1014.88 1014.85 1015.08 1015.27 1015.27
1008.13 1009.02 1009.84 1009.90 1009.95 1010.25 1010.49 1010.79 1011.20 1011.48 1011.81 1012.16 1012.43 1012.68 1012.97 1013.20 1013.36 1013.51 1013.67 1013.81 1013.92 1014.05 1014.19 1014.31 1014.42 1014.46 1014.57 1014.53 1014.60 1014.61 1014.66 1014.82 1014.86 1014.91 1014.89 1014.91 1015.00 1015.04 1015.04 1015.00 1015.12 1015.20 1015.36
1008.13 1008.82 1009.60 1009.93 1010.08 1010.41 1010.78 1011.00 1011.40 1011.73 1012.00 1012.35 1012.71 1012.95 1013.15 1013.33 1013.53 1013.73 1013.88 1014.03 1014.15 1014.28 1014.32 1014.41 1014.53 1014.58 1014.64 1014.65 1014.61 1014.69 1014.79 1014.86 1014.90 1014.79 1014.79 1014.74 1014.70 1014.84 1014.90 1014.91 1015.04 1015.19 1015.25
1008.61 1008.81 1009.49 1009.93 1010.14 1010.43 1010.77 1011.16 1011.53 1011.90 1012.21 1012.48 1012.80 1013.07 1013.30 1013.46 1013.57 1013.70 1013.88 1014.04 1014.17 1014.28 1014.33 1014.37 1014.42 1014.47 1014.53 1014.60 1014.56 1014.50 1014.58 1014.67 1014.81 1014.83 1014.85 1014.56 1014.80 1014.85 1014.78 1014.92 1014.89 1015.12 1015.34
1008.92 1008.94 1009.46 1009.92 1010.25 1010.51 1010.86 1011.29 1011.67 1011.96 1012.27 1012.57 1012.83 1013.15 1013.34 1013.44 1013.53 1013.64 1013.79 1013.97 1014.05 1014.13 1014.17 1014.26 1014.33 1014.32 1014.35 1014.40 1014.35 1014.28 1014.28 1014.29 1014.31 1014.69 1014.82 1014.47 1014.70 1014.72 1014.57 1014.57 1014.81 1014.98 1015.26
1008.92 1008.98 1009.47 1009.93 1010.34 1010.70 1010.98 1011.36 1011.73 1012.06 1012.29 1012.66 1012.89 1013.03 1013.21 1013.41 1013.51 1013.66 1013.81 1013.90 1014.01 1014.10 1014.13 1014.10 1014.18 1014.24 1014.21 1014.27 1014.33 1014.36 1014.30 1014.32 1014.30 1014.43 1014.34 1014.32 1014.46 1014.65 1014.47 1014.42 1014.45 1014.62 1015.01
1008.44 1008.84 1009.30 1009.83 1010.34 1010.79 1011.12 1011.47 1011.80 1012.02 1012.29 1012.57 1012.84 1013.01 1013.16 1013.26 1013.27 1013.23 1013.27 1013.36 1013.47 1013.60 1013.81 1013.93 1014.03 1014.06 1014.17 1014.22 1014.28 1014.35 1014.38 1014.34 1014.38 1014.56 1014.52 1014.36 1014.26 1014.58 1014.34 1014.25 1014.40 1014.57 1014.66
1008.55 1008.97 1009.34 1009.85 1010.40 1010.80 1011.09 1011.39 1011.75 1012.09 1012.40 1012.51 1012.66 1012.87 1013.01 1013.19 1013.34 1013.42 1013.36 1013.21 1013.24 1013.34 1013.49 1013.71 1013.86 1014.01 1014.10 1014.17 1014.21 1014.16 1014.21 1014.21 1014.31 1014.46 1014.53 1014.48 1014.33 1014.36 1014.31 1014.48 1014.41 1014.46 1014.62
1008.52 1009.03 1009.51 1009.91 1010.31 1010.70 1011.04 1011.26 1011.57 1011.81 1012.06 1012.33 1012.53 1012.68 1012.87 1012.91 1013.05 1013.17 1013.41 1013.57 1013.60 1013.65 1013.64 1013.62 1013.82 1014.01 1013.95 1013.92 1014.02 1014.13 1014.22 1014.16 1014.13 1014.24 1014.36 1014.25 1014.21 1014.31 1014.27 1014.12 1014.19 1014.25 1014.45
1008.72 1008.86 1009.18 1009.61 1009.96 1010.37 1010.77 1011.13 1011.47 1011.75 1011.93 1012.09 1012.37 1012.61 1012.91 1013.17 1013.29 1013.46 1013.57 1013.65 1013.78 1013.73 1013.72 1013.71 1013.73 1013.93 1014.29 1014.27 1014.19 1014.03 1013.94 1013.98 1013.94 1013.86 1013.98 1014.01 1014.09 1014.21 1014.14 1014.07 1013.93 1014.03 1014.33
1008.32 1008.73 1008.98 1009.40 1009.78 1010.20 1010.48 1010.97 1011.46 1011.67 1011.92 1012.22 1012.43 1012.57 1012.78 1013.01 1013.16 1013.23 1013.33 1013.28 1013.40 1013.56 1013.72 1013.86 1013.97 1014.02 1014.04 1014.35 1014.33 1014.22 1014.19 1013.95 1013.97 1013.82 1013.61 1013.45 1013.41 1013.64 1013.76 1013.91 1014.05 1013.90 1013.89
1007.92 1008.47 1008.87 1009.12 1009.34 1009.72 1010.27 1010.76 1011.04 1011.41 1011.57 1011.82 1012.05 1012.14 1012.44 1012.79 1013.16 1013.30 1013.41 1013.34 1013.38 1013.67 1013.80 1013.74 1013.85 1013.93 1013.90 1013.83 1013.83 1013.84 1013.67 1013.82 1013.80 1013.71 1013.22 1013.07 1013.07 1013.08 1013.19 1013.19 1013.53 1013.66 1013.70
1007.74 1008.21 1008.74 1009.01 1009.07 1009.36 1009.10 1009.65 1010.11 1010.80 1010.98 1011.39 1011.74 1012.16 1012.62 1012.58 1012.80 1012.94 1013.39 1013.31 1013.12 1013.07 1013.50 1013.77 1013.65 1013.56 1013.71 1013.85 1013.89 1013.71 1013.45 1013.39 1013.39 1013.44 1013.13 1012.95 1012.81 1012.93 1012.84 1012.71 1013.08 1013.10 1013.40
1007.41 1007.75 1008.20 1008.68 1008.30 1008.77 1009.11 1009.49 1009.99 1010.12 1010.48 1010.65 1011.28 1011.60 1011.79 1012.32 1012.44 1012.85 1012.70 1013.09 1012.94 1013.04 1013.19 1013.48 1013.76 1013.55 1013.55 1013.57 1013.40 1013.34 1012.91 1012.93 1013.13 1013.05 1012.75 1012.58 1012.53 1012.71 1012.63 1012.52 1012.86 1012.83 1012.92
1006.80 1007.21 1007.70 1008.36 1008.40 1008.66 1008.91 1009.29 1009.46 1009.66 1009.86 1010.22 1010.62 1010.75 1010.99 1011.42 1011.68 1012.10 1012.40 1012.68 1012.77 1012.74 1012.76 1012.94 1013.31 1013.46 1013.49 1013.36 1013.33 1012.96 1012.67 1012.57 1012.55 1012.62 1012.50 1012.61 1012.54 1012.45 1012.33 1012.13 1012.20 1012.50 1012.49
1006.54 1006.58 1007.10 1007.48 1007.99 1008.16 1008.94 1009.17 1009.36 1009.08 1009.54 1010.10 1010.15 1010.21 1010.45 1010.63 1010.93 1011.33 1011.68 1012.11 1012.08 1012.35 1012.73 1012.85 1013.02 1012.98 1013.12 1013.01 1012.85 1012.61 1012.33 1012.13 1012.19 1012.09 1012.03 1012.04 1011.98 1012.16 1012.09 1012.09 1011.87 1011.90 1012.02
1006.37 1006.53 1006.76 1007.34 1007.99 1008.32 1008.77 1008.94 1009.15 1009.00 1009.20 1009.30 1009.44 1009.71 1009.93 1010.11 1010.23 1010.95 1011.36 1011.40 1011.72 1012.38 1012.44 1012.65 1012.86 1012.98 1013.15 1013.17 1012.83 1012.53 1012.48 1012.01 1011.77 1011.72 1011.43 1011.39 1011.36 1011.60 1011.61 1011.71 1011.80 1011.82 1011.93
1005.97 1006.61 1006.91 1007.31 1007.76 1008.08 1008.68 1008.74 1009.13 1008.92 1009.02 1009.07 1009.00 1009.10 1009.33 1009.57 1009.98 1010.53 1010.87 1010.95 1011.05 1011.61 1012.04 1012.25 1012.47 1012.61 1012.88 1012.87 1012.93 1012.65 1012.11 1011.74 1011.41 1011.21 1011.33 1011.32 1011.26 1011.24 1011.34 1011.49 1011.53 1011.66 1011.63
1005.59 1006.23 1006.74 1007.27 1007.59 1007.59 1007.95 1008.37 1008.53 1008.67 1008.83 1008.79 1008.89 1008.97 1009.10 1009.46 1009.50 1010.11 1010.32 1010.43 1010.83 1011.28 1011.26 1011.64 1012.15 1012.37 1012.36 1012.23 1012.23 1011.96 1011.88 1011.80 1011.94 1011.63 1011.15 1010.86 1010.90 1011.03 1011.09 1011.03 1010.95 1010.91 1011.04
1005.82 1006.28 1006.69 1007.17 1007.48 1007.80 1007.98 1008.16 1008.41 1008.47 1008.44 1008.46 1008.46 1008.38 1008.68 1009.12 1009.31 1010.01 1009.98 1010.21 1010.49 1010.64 1010.82 1011.14 1011.37 1011.73 1011.60 1011.67 1012.30 1012.11 1011.72 1011.19 1011.01 1010.87 1010.47 1010.38 1010.43 1010.35 1010.39 1010.58 1010.53 1010.57 1010.63
1005.70 1006.13 1006.50 1006.92 1007.26 1007.33 1007.31 1007.61 1007.92 1008.30 1008.38 1008.58 1008.80 1008.90 1008.91 1008.56 1008.57 1009.36 1009.69 1009.72 1009.88 1010.16 1010.62 1011.23 1011.36 1011.44 1011.34 1011.27 1011.23 1011.87 1011.81 1011.35 1010.86 1010.21 1010.04 1010.18 1010.15 1010.11 1010.15 1009.94 1010.18 1010.08 1010.32
1006.08 1006.40 1006.80 1006.99 1007.19 1007.24 1007.10 1007.42 1007.74 1008.41 1008.63 1008.68 1008.65 1008.78 1009.02 1008.95 1008.43 1008.79 1008.93 1009.04 1009.12 1009.39 1009.49 1010.48 1010.70 1011.22 1011.29 1010.86 1010.72 1010.96 1011.17 1010.51 1010.27 1009.47 1009.41 1009.26 1009.31 1009.64 1009.66 1009.70 1009.57 1009.64 1009.78
1006.20 1006.10 1006.20 1006.43 1006.60 1006.84 1007.12 1007.56 1007.96 1008.54 1008.96 1008.85 1008.80 1008.54 1008.55 1008.74 1008.59 1008.35 1008.21 1008.59 1008.88 1009.12 1009.67 1009.01 1009.57 1009.72 1009.95 1010.39 1010.54 1010.17 1010.14 1010.38 1010.72 1010.30 1009.25 1008.55 1008.74 1009.11 1009.07 1009.16 1009.60 1009.60 1009.75
1006.18 1006.18 1006.30 1006.56 1007.01 1007.13 1007.23 1007.51 1008.06 1008.54 1008.80 1008.67 1008.61 1008.56 1008.64 1008.76 1008.75 1008.50 1008.26 1008.34 1008.50 1008.76 1008.96 1008.29 1008.42 1009.25 1009.31 1009.68 1009.69 1009.65 1010.24 1010.27 1010.65 1011.91 1010.31 1009.30 1009.02 1008.82 1008.73 1008.80 1009.36 1009.75 1009.36
1006.39 1006.54 1006.68 1006.99 1007.52 1007.51 1007.59 1007.81 1008.15 1008.51 1008.65 1008.66 1008.59 1008.56 1008.53 1008.57 1008.65 1008.41 1008.14 1008.08 1007.86 1008.09 1007.96 1008.11 1008.00 1008.23 1008.40 1009.03 1008.90 1009.36 1009.96 1010.58 1011.15 1011.11 1011.84 1011.92 1011.61 1010.64 1009.56 1008.83 1009.01 1009.30 1009.27
Wind_Speed
8 9 13 16 18 18 17 17 16 17 18 17 17 18 18 18 18 17 17 16 15 15 14 13 12 11 11 12 11 10 10 9 8 10 10 10 10 11 17 14 12 9 11
18 11 13 15 18 18 17 17 16 16 16 16 16 17 16 16 16 16 15 14 13 14 13 13 13 13 12 11 10 10 9 7 6 7 9 9 9 11 13 14 13 9 11
17 13 10 14 17 17 17 17 16 16 16 15 15 16 15 14 14 14 13 12 12 12 12 11 11 11 10 10 9 9 7 5 4 3 5 4 5 10 13 13 12 11 10
17 13 10 14 17 17 16 16 16 15 16 16 15 15 14 14 13 13 11 10 11 11 11 11 10 10 9 8 6 5 4 4 2 0 2 4 6 12 13 13 12 11 11
13 13 11 14 16 17 17 16 16 15 16 16 15 15 14 13 13 12 11 11 10 10 10 10 10 10 9 7 5 3 1 1 1 1 2 4 4 9 14 13 12 12 11
11 11 14 14 15 16 17 16 16 16 16 16 16 15 14 14 13 12 11 11 11 11 11 11 10 10 9 8 7 5 4 4 4 2 1 1 6 11 15 15 13 13 12
11 11 12 15 14 15 16 16 16 16 16 16 16 16 15 15 13 12 11 11 11 10 10 11 10 9 9 9 8 7 6 6 3 2 3 1 6 12 14 14 13 14 13
15 13 12 15 15 14 14 15 15 15 16 16 15 15 15 14 15 15 15 15 14 14 12 11 10 10 9 9 8 7 7 6 4 2 4 3 8 13 15 14 13 13 14
13 13 10 10 12 14 14 14 14 14 14 15 16 15 15 15 14 13 14 15 15 14 13 11 11 10 9 9 9 9 8 8 4 3 4 3 11 14 15 14 13 12 12
12 12 12 10 9 8 8 14 15 16 16 16 16 15 15 15 15 15 13 12 12 11 12 12 11 10 10 10 10 9 9 11 5 5 4 4 10 13 14 15 14 13 12
9 11 12 13 12 11 9 10 12 15 16 17 15 15 11 6 7 9 9 11 12 12 12 12 11 10 9 10 10 10 11 4 5 4 3 9 11 15 14 14 14 13 12
14 12 12 13 12 11 8 8 8 7 6 7 7 8 6 6 6 8 10 14 14 13 12 11 10 9 8 3 4 10 4 4 4 4 4 11 12 16 15 13 13 13 13
11 8 12 13 12 13 9 6 6 5 6 6 9 9 7 5 4 5 4 5 5 10 4 6 5 4 6 4 5 5 5 4 4 4 7 12 14 17 16 15 15 14 13
13 11 13 13 13 13 9 10 10 8 8 7 7 9 6 4 5 5 4 5 5 4 5 5 4 6 7 6 6 6 6 6 4 4 6 15 17 17 17 15 16 15 14
13 13 14 13 14 13 10 7 7 9 8 10 9 10 9 7 6 5 6 5 7 5 6 5 5 5 6 7 8 9 8 7 5 4 3 12 16 17 15 15 15 15 15
12 15 13 11 10 10 10 10 7 7 9 8 9 10 13 9 8 7 7 7 7 6 7 6 7 6 6 5 7 8 9 6 6 6 3 5 13 14 16 16 16 16 16
12 15 15 17 12 8 5 6 7 7 7 8 8 10 13 12 11 11 7 8 8 7 6 4 6 5 5 5 9 8 8 7 5 6 6 6 6 14 14 15 16 17 17
8 11 11 10 8 5 3 5 6 7 7 8 8 7 12 13 13 8 7 8 5 3 5 5 4 4 4 4 7 6 4 4 5 7 6 5 4 5 8 15 15 15 16
11 8 7 6 7 7 6 4 4 4 5 7 5 6 10 11 11 10 8 8 7 7 5 4 4 3 4 4 4 5 5 5 6 5 7 5 6 5 4 7 12 14 15
10 11 10 7 8 6 5 4 3 2 4 4 5 5 7 6 10 8 10 9 4 5 6 4 4 3 5 7 8 6 4 4 4 6 8 5 5 6 5 6 5 6 14
7 10 12 10 9 5 2 3 2 4 3 2 3 5 6 6 8 9 9 8 5 8 9 5 5 7 8 3 1 3 4 6 7 6 5 5 6 7 6 5 4 4 4
13 14 11 9 7 4 3 2 3 1 1 3 3 5 5 7 9 7 7 6 4 4 3 5 5 8 4 6 7 2 4 5 4 9 7 7 9 4 4 7 5 6 3
5 7 8 10 10 7 6 3 3 2 2 1 3 2 2 5 8 5 8 6 4 3 4 10 7 7 10 5 9 6 2 8 0 3 9 8 8 5 4 6 4 4 5
8 7 8 8 6 4 5 4 4 3 1 2 2 1 4 4 6 7 11 8 5 8 9 8 10 12 12 14 4 9 6 1 3 4 3 4 6 7 6 4 2 3 5
7 7 8 9 8 6 6 5 4 2 2 2 2 2 1 2 4 5 6 4 5 7 8 9 8 12 10 12 7 7 8 3 5 6 5 5 3 4 5 5 5 4 5
7 8 8 9 6 7 7 6 6 4 3 3 4 4 4 1 2 5 5 7 10 9 10 11 10 12 10 4 3 4 3 4 4 5 6 14 8 10 6 2 5 4 4
Wind_Direction
148 161 164 141 129 127 125 121 118 116 113 112 112 111 110 110 113 116 117 117 119 123 125 126 127 128 126 124 124 115 109 109 112 114 117 114 107 86 107 117 104 102 100
141 153 163 146 134 132 130 128 126 124 122 120 118 114 113 113 115 117 119 123 126 131 132 134 135 133 132 130 123 112 107 108 112 128 130 119 120 116 117 114 114 113 108
137 144 159 148 138 137 135 133 133 130 126 123 121 120 121 121 121 122 123 128 131 135 136 136 136 135 138 135 134 129 125 124 116 114 145 140 143 136 129 122 125 123 118
138 140 150 154 142 140 139 138 138 137 133 131 129 129 130 130 127 125 125 129 136 143 143 141 142 144 147 146 141 131 136 135 108 352 245 201 179 159 141 136 140 136 132
135 138 149 155 149 147 145 144 143 143 141 139 138 138 136 135 134 134 136 142 149 151 150 152 156 159 159 157 156 165 222 278 249 302 286 228 183 170 149 149 149 150 141
134 136 148 157 157 154 150 150 150 150 149 148 146 145 145 147 147 148 150 157 160 164 165 168 171 168 168 172 180 197 229 265 305 16 335 192 179 181 162 161 156 148 151
143 141 151 156 159 160 155 155 156 156 154 154 155 155 157 157 158 158 162 165 169 174 178 181 181 180 181 184 191 207 231 262 286 311 307 308 181 194 166 166 167 157 158
151 153 156 160 161 161 159 159 161 161 160 160 162 164 165 168 170 171 173 176 179 181 187 192 192 191 195 197 202 216 230 246 280 296 278 291 188 202 173 176 175 168 165
151 152 154 156 163 163 163 164 164 163 164 166 168 171 172 176 180 185 188 185 185 186 191 200 203 204 203 206 214 222 235 245 248 260 267 261 202 200 184 185 186 180 177
150 155 153 152 154 157 167 169 170 170 171 174 177 178 181 182 187 190 194 199 198 200 200 199 210 219 216 215 222 228 241 254 247 249 251 243 209 210 199 189 194 191 187
160 167 161 159 160 162 164 177 175 179 179 178 181 182 180 187 194 201 200 209 211 210 213 216 216 222 241 249 249 242 236 233 244 235 219 236 232 221 207 198 198 200 200
176 180 172 164 163 162 166 171 176 177 180 184 186 185 184 191 199 200 208 209 210 213 219 227 231 235 242 253 271 276 263 251 244 253 242 223 220 210 210 200 206 206 205
191 169 177 171 171 163 164 163 175 187 182 183 187 185 189 189 202 206 207 213 209 224 224 220 232 238 234 223 244 254 258 245 245 251 251 226 202 212 212 197 205 208 211
174 181 182 183 173 186 170 175 179 182 184 189 194 193 195 200 209 213 221 225 203 206 211 220 211 217 235 242 249 257 250 248 231 246 254 241 208 213 215 203 206 205 211
168 176 191 190 182 188 185 178 185 183 186 188 191 196 190 206 204 216 207 206 208 199 201 209 227 232 237 237 243 245 249 245 242 248 243 221 201 214 217 211 215 211 211
161 173 178 193 192 188 196 191 180 185 191 194 197 199 197 203 206 204 211 218 222 212 213 209 220 225 236 229 241 242 248 242 231 225 219 228 220 218 219 216 216 220 215
186 173 182 190 190 185 181 182 189 180 182 199 202 202 204 205 208 210 208 214 219 211 213 205 226 226 236 234 242 242 231 235 237 224 201 216 217 232 231 229 225 223 219
170 181 178 186 177 146 155 176 198 190 188 202 198 198 210 210 213 210 214 220 209 199 203 209 213 234 249 245 253 249 270 262 246 239 236 221 212 229 233 238 240 237 236
169 166 176 187 188 184 192 210 249 207 208 213 193 201 213 216 212 213 219 224 186 192 207 205 222 186 218 241 254 252 245 242 244 254 255 252 230 228 225 245 245 244 241
171 167 171 171 199 245 204 232 220 204 225 214 220 209 224 216 211 210 227 230 189 205 203 184 196 197 215 228 236 240 250 270 285 248 250 238 233 250 245 235 235 235 236
156 166 174 165 186 171 148 162 220 225 252 274 249 225 229 217 218 220 232 227 200 230 235 197 189 201 234 185 77 298 268 233 244 247 232 233 237 233 228 249 239 237 236
170 178 165 168 174 179 141 154 136 123 291 273 288 282 219 217 221 206 218 233 201 214 229 252 231 244 249 191 217 145 268 305 249 239 233 234 242 232 235 242 240 239 219
126 135 151 164 162 170 150 117 93 65 23 348 316 330 348 279 260 227 188 200 205 184 212 254 238 232 263 261 222 195 200 231 204 212 230 229 231 213 223 244 243 235 161
154 142 133 141 135 111 130 106 120 149 201 228 230 249 324 309 300 263 239 212 238 301 280 252 249 241 227 247 240 244 257 360 201 295 276 235 225 223 215 221 196 181 162
127 119 102 94 92 99 93 101 96 85 223 286 290 324 246 287 250 252 261 241 241 228 233 228 247 265 256 256 234 268 232 251 346 329 304 330 353 248 218 202 177 218 200
114 112 107 102 101 103 101 93 88 65 322 332 317 327 316 338 311 291 247 239 239 241 244 250 262 261 254 296 267 247 199 173 197 133 8 331 328 324 294 239 181 198 227